Weather in Dynow

Poland     49°48′45″N   22°14′05″E
temp.,
°C
wind,
m/s
gust,
m/s
humid.,
%
clouds,
%
prec.,
mm/h
press.,
hPa
HPBL,
m
2 july, sat
sat223:00+21se33623 0.0 101346
02:00+20w7128776 0.0 1017562
05:00+17w61392100 0.1 1018538
08:00+17w61091100 0.3 1020555
11:00+17wnw6987100 0.1 1022618
14:00+18nw5883100 0.1 1023713
17:00+19nw467576 0.0 1022743
20:00+20nnw356987 0.0 1022703
3 july, sun
sun323:00+18nne2581100 0.0 1022261
02:00+15n239369 0.0 1022108
05:00+15nne1294100 0.0 102289
08:00+17nne128199 0.0 1021362
11:00+23n22480 0.0 10201211
14:00+27nnw33330 0.0 10181654
17:00+27n2332100 0.0 10171808
20:00+21nne34513 0.0 101774
4 july, mon
mon423:00+16ene22846 0.0 101923
02:00+14e119157 0.0 101810
05:00+14se11922 0.0 101811
08:00+22ene11610 0.0 1018322
11:00+28nne11360 0.0 10161264
14:00+31nnw242741 0.0 10152355
17:00+32nnw24242 0.0 10142763
20:00+25nne23403 0.0 101542
5 july, tue
tue523:00+20ese2352100 0.0 101639
02:00+18ese126099 0.0 101514
05:00+17wnw1164100 0.0 101611
08:00+21nw5664100 0.0 1017585
11:00+26n5546100 0.0 10161236
14:00+26nnw7650100 0.1 10161070
17:00+22nnw6870100 1.2 10171020
20:00+18nne4886100 1.3 1018446
6 july, wed
wed623:00+15nw229890 0.0 101943
02:00+16nw2698100 0.2 1019253
05:00+15n279670 0.7 1019304
08:00+18nnw34823 0.7 1020604
11:00+24n34410 0.0 10191867
14:00+24nnw3439100 0.0 10181289
17:00+26wnw453295 0.0 10182392
20:00+20nnw234696 0.0 101964